Weather in Medyanka

Russia / Perm Krai     56°58′24″N   56°57′29″E
temp.,
°C
wind,
m/s
gust,
m/s
humid.,
%
clouds,
%
prec.,
mm/h
press.,
hPa
HPBL,
m
24 june, thu
thu2423:00+15nne22830 0.0 101917
02:00+12ese46670 0.0 102073
05:00+11se11675 0.0 102010
08:00+17ssw23605 0.0 1019211
11:00+21sw33495 0.0 1019735
14:00+24w33485 0.0 10181069
17:00+26w355110 0.0 10161409
20:00+22wsw59795 0.6 1015201
25 june, fri
fri2523:00+18wsw3696100 0.7 1014115
02:00+17sw239582 0.3 101342
05:00+16wsw35965 0.3 1012106
08:00+20nw3486100 0.0 1012288
11:00+24nw356997 0.0 1012727
14:00+28nnw455746 0.0 10111241
17:00+29n35535 0.0 10111177
20:00+20nne3898100 11.8 1012322
26 june, sat
sat2623:00+18nnw3589100 17.1 101177
02:00+17sse1193100 0.1 101013
05:00+17sw3394100 0.1 101056
08:00+20w358791 0.0 1010297
11:00+24wnw337520 0.0 1010724
14:00+27nw45645 0.0 10091118
17:00+28nnw365662 0.0 10081409
20:00+23nw3872100 0.0 1008178
27 june, sun
sun2723:00+22ene246899 0.0 100962
02:00+21n1164100 0.0 101011
05:00+20wsw117155 0.0 101012
08:00+22n237063 0.0 1010236
11:00+24n45595 0.0 1011939
14:00+26nnw45545 0.0 10111596
17:00+25nnw66530 0.0 10121496
20:00+22nnw48690 0.0 1012262
28 june, mon
mon2823:00+18ne33720 0.0 101440
02:00+16ne22800 0.0 101515
05:00+14nne22850 0.0 101628
08:00+19e34750 0.0 1016297
11:00+22e34620 0.0 10171060
14:00+24ene23490 0.0 10161821
17:00+25nne234512 0.0 10161873
20:00+23nnw33655 0.0 101666